Starlink 11090

operational
NORAD ID: 59422 Int'l Des: 2024-065 Owner: SPXS Country: US Constellation: starlink
LEOCIRCULAR

About Starlink 11090

Description loading...

Live Position

Loading 3D Globe...

Upcoming Passes

Altitude History

Altitude vs Time

uPlot chart will show altitude changes over time

Two-Line Element Set

1 59422U 24065B 25350.66543863 -.00002067 00000-0 -12199-4 0 9998
2 59422 53.1595 143.1317 0000934 114.5566 245.5550 15.69724628 98492
Epoch: Dec 16, 2025 • Age: 17 hours

Current Status

Altitude 371.1 km
Velocity 7.69 km/s
Sub-Earth Point -34.30°S, 105.91°W
Launch Date Apr 7, 2024
Age 1.6 years
Type internet

Technical Details

Classification Payload
Mass 960.00 kg
Dry Mass 910.00 kg
Total Mass 960.00 kg
Length 0.30 m
Diameter 4.10 m
Span 29.00 m
Shape Box + pan
Manufacturer SPXS
Bus Type Starlink V2MD
Phase Status In Orbit
Owner/State SPXS/US

Large Constellations

Loading constellations...